Content
SEND FEEDBACK

Daily
Averages
Monthly
Summary
United States of America

UMATAC, GUAM


Home > North America > United States > Guam
Elevation: 58 meters     Latitude: 13 17N     Longitude: 144 40E

WEATHER
 
SELECT A DAY
Number of Records: 342,038;   Date Range: 1/1/95 - 7/29/14
 
SHARE

PRINT THIS DATA

[ ← Previous Day ]
WEATHER ALMANAC - 28 OCTOBER, 2013
[ Next Day → ]
[ °F ]   °C
Weather ElementAverageHighLow
Temperature25.5 °C27 °C (8:38 am)24 °C (9:21 am)
Dewpoint24.7 °C25.4 °C (11:58 am)23 °C (1:38 am)
Humidity95.1 %100 % (2:32 am)89 % (1:38 am)
Barometer1010.2 hPa1012.5 hPa (7:31 pm)1007.5 hPa (3:58 am)
Wind Speed26.2 km/h40.7 km/h (2:32 am)
Wind Gust53.8 km/h (1:58 am)
Weather ElementAverage
Visibility13.4 km
Wind DirectionESE (129.3 °)

Weather ElementTotal
Precipitation11.94 mm
Cooling Degree Days7.2 (Base 18.3)
Growing Degree Days15.5 (Base 10)
Averaged from 106 records on 28 October, 2013
WEATHER CONDITIONS BREAKOUT
WIND DIRECTION BREAKOUT
WEATHER BY HOUR - 28 OCTOBER, 2013
[ °F ]   °C
Local TimeTemperatureDewpointHumidityBarometerVisibilityWind DirectionWind SpeedGust SpeedPrecipitationEventsConditions
1:38 AM25 °C23 °C89 %1009.5 hPa16.1 kmEast (80°)31.5 km/h40.7 km/hMostly Cloudy
1:48 AM25 °C24 °C94 %1009.1 hPa16.1 kmEast (90°)33.3 km/h44.4 km/hMostly Cloudy
1:53 AM25 °C24 °C94 %1009.1 hPa16.1 kmEast (100°)33.3 km/h46.3 km/hMostly Cloudy
1:54 AM25 °C24 °C94 %1009.1 hPa14.5 kmEast (100°)37 km/h46.3 km/hRainLight Rain
1:58 AM25 °C24 °C94 %1008.1 hPa14.5 kmEast (90°)31.5 km/h53.8 km/h0 mmRainLight Rain
2:04 AM25 °C24 °C94 %1009.1 hPa16.1 kmEast (90°)33.3 km/h53.8 km/hMostly Cloudy
2:09 AM25 °C24 °C94 %1009.1 hPa16.1 kmEast (90°)31.5 km/h42.6 km/hMostly Cloudy
2:22 AM26 °C25 °C94 %1008.8 hPa11.3 kmEast (90°)37 km/h51.8 km/hRainLight Rain
2:27 AM26 °C25 °C94 %1009.1 hPa4.8 kmEast (100°)37 km/h51.8 km/hRainLight Rain
2:32 AM25 °C25 °C100 %1008.8 hPa4 kmEast (100°)40.7 km/h51.8 km/hRainLight Rain
2:37 AM25 °C25 °C100 %1008.8 hPa4.8 kmEast (100°)37 km/h51.8 km/hRainLight Rain
2:46 AM25 °C25 °C100 %1008.8 hPa11.3 kmEast (100°)27.8 km/h46.3 km/hOvercast
2:51 AM25 °C25 °C100 %1008.8 hPa14.5 kmESE (110°)24.1 km/h37 km/hOvercast
2:56 AM25 °C25 °C100 %1008.8 hPa16.1 kmESE (110°)25.9 km/h37 km/hMostly Cloudy
2:58 AM25.3 °C24.9 °C98 %1007.8 hPa16.1 kmEast (100°)24.1 km/h37 km/h1.52 mmMostly Cloudy
3:03 AM25 °C25 °C100 %1008.8 hPa16.1 kmEast (100°)20.4 km/h35.2 km/hMostly Cloudy
3:06 AM26 °C25 °C94 %1008.8 hPa12.9 kmEast (90°)37 km/h53.8 km/hRainLight Rain
3:11 AM26 °C25 °C94 %1009.1 hPa12.9 kmEast (100°)31.5 km/h53.8 km/hRainLight Rain
3:16 AM25 °C25 °C100 %1008.8 hPa14.5 kmEast (100°)29.6 km/h53.8 km/hRainLight Rain
3:31 AM25 °C25 °C100 %1008.8 hPa2.9 kmESE (120°)29.6 km/h48.1 km/hRainHeavy Rain
3:36 AM25 °C25 °C100 %1008.5 hPa2.9 kmESE (120°)33.3 km/h48.1 km/hRainLight Rain
3:42 AM25 °C25 °C100 %1008.5 hPa6.4 kmESE (110°)25.9 km/h44.4 km/hRainLight Rain
3:47 AM25 °C25 °C100 %1008.5 hPa11.3 kmESE (110°)25.9 km/h44.4 km/hRainLight Rain
3:50 AM25 °C25 °C100 %1008.8 hPa14.5 kmESE (120°)24.1 km/h38.9 km/hOvercast
3:55 AM25 °C25 °C100 %1008.8 hPa16.1 kmESE (120°)25.9 km/h38.9 km/hMostly Cloudy
3:58 AM25.3 °C25.1 °C99 %1007.5 hPa16.1 kmESE (120°)33.3 km/h40.7 km/h3.56 mmMostly Cloudy
4:08 AM26 °C25 °C94 %1008.5 hPa16.1 kmESE (110°)24.1 km/h38.9 km/hOvercast
4:13 AM26 °C25 °C94 %1008.8 hPa16.1 kmESE (110°)25.9 km/h38.9 km/hOvercast
4:28 AM26 °C25 °C94 %1008.8 hPa16.1 kmESE (110°)29.6 km/h38.9 km/hMostly Cloudy
4:38 AM26 °C25 °C94 %1008.8 hPa16.1 kmESE (110°)31.5 km/h44.4 km/hMostly Cloudy
4:58 AM25.9 °C24.6 °C92 %1008.1 hPa16.1 kmESE (120°)33.3 km/h37 km/hMostly Cloudy
5:03 AM26 °C25 °C94 %1009.1 hPa16.1 kmESE (120°)31.5 km/h42.6 km/hMostly Cloudy
5:53 AM26 °C25 °C94 %1009.5 hPa16.1 kmESE (120°)24.1 km/hMostly Cloudy
5:58 AM26 °C24.8 °C93 %1008.5 hPa16.1 kmESE (120°)27.8 km/hMostly Cloudy
6:03 AM26 °C25 °C94 %1009.8 hPa16.1 kmESE (110°)24.1 km/h37 km/hMostly Cloudy
6:33 AM26 °C25 °C94 %1009.8 hPa16.1 kmESE (120°)24.1 km/h40.7 km/hOvercast
6:40 AM26 °C25 °C94 %1009.8 hPa11.3 kmSE (140°)37 km/h46.3 km/hRainLight Rain
6:55 AM25 °C24 °C94 %1010.2 hPa14.5 kmSE (140°)24.1 km/h40.7 km/hMostly Cloudy
6:58 AM24.8 °C24.4 °C98 %1009.5 hPa14.5 kmSE (140°)22.2 km/h0 mmMostly Cloudy
7:03 AM25 °C25 °C100 %1010.2 hPa12.9 kmSE (140°)25.9 km/h38.9 km/hScattered Clouds
7:58 AM26.3 °C24.6 °C90 %1009.5 hPa16.1 kmSE (130°)37 km/h46.3 km/hScattered Clouds
8:33 AM26 °C25 °C94 %1011.5 hPa16.1 kmESE (120°)24.1 km/hMostly Cloudy
8:38 AM27 °C25 °C89 %1011.5 hPa16.1 kmESE (120°)29.6 km/h37 km/hMostly Cloudy
8:48 AM26 °C25 °C94 %1011.9 hPa16.1 kmEast (100°)24.1 km/h40.7 km/hMostly Cloudy
8:58 AM25.5 °C24.9 °C96 %1011.2 hPa16.1 kmESE (110°)25.9 km/h38.9 km/hMostly Cloudy
9:03 AM25 °C25 °C100 %1012.2 hPa14.5 kmESE (120°)29.6 km/h38.9 km/hOvercast
9:04 AM25 °C25 °C100 %1012.2 hPa11.3 kmSE (130°)25.9 km/h38.9 km/hRainLight Rain
9:09 AM25 °C25 °C100 %1012.2 hPa4.8 kmSE (140°)37 km/h46.3 km/hRainLight Rain
9:21 AM24 °C24 °C100 %1012.2 hPa14.5 kmSSE (150°)25.9 km/hMostly Cloudy
9:26 AM24 °C24 °C100 %1012.2 hPa16.1 kmSSE (150°)20.4 km/hRainLight Rain
9:36 AM25 °C24 °C94 %1012.2 hPa16.1 kmSE (140°)24.1 km/h31.5 km/hScattered Clouds
9:42 AM25 °C25 °C100 %1011.9 hPa16.1 kmSE (140°)27.8 km/hRainLight Rain
9:47 AM25 °C25 °C100 %1012.2 hPa4 kmSE (140°)25.9 km/hRainLight Rain
9:52 AM25 °C25 °C100 %1011.9 hPa4 kmSE (140°)33.3 km/h40.7 km/hRainLight Rain
9:57 AM25 °C25 °C100 %1011.9 hPa12.9 kmSSE (150°)25.9 km/h40.7 km/hRainLight Rain
9:58 AM25 °C25 °C100 %1011.2 hPa12.9 kmSSE (150°)25.9 km/h40.7 km/h1.52 mmRainLight Rain
9:59 AM25 °C25 °C100 %1011.9 hPa16.1 kmSSE (150°)31.5 km/h42.6 km/hMostly Cloudy
10:04 AM25 °C25 °C100 %1011.9 hPa16.1 kmSSE (150°)35.2 km/h42.6 km/hMostly Cloudy
10:14 AM25 °C24 °C94 %1011.9 hPa14.5 kmSSE (150°)33.3 km/h42.6 km/hRainLight Rain
10:19 AM25 °C24 °C94 %1011.9 hPa4 kmSE (130°)33.3 km/h44.4 km/hRainHeavy Rain
10:24 AM25 °C24 °C94 %1011.5 hPa2.9 kmSE (140°)29.6 km/h44.4 km/hRainLight Rain
10:29 AM25 °C24 °C94 %1011.5 hPa4.8 kmSE (140°)24.1 km/h44.4 km/hRainLight Rain
10:34 AM25 °C24 °C94 %1011.5 hPa14.5 kmSE (140°)24.1 km/hRainLight Rain
10:35 AM25 °C24 °C94 %1011.5 hPa16.1 kmSE (140°)25.9 km/hMostly Cloudy
10:58 AM25.3 °C24.4 °C95 %1010.5 hPa16.1 kmSE (130°)29.6 km/h1.02 mmScattered Clouds
11:58 AM26.9 °C25.4 °C91 %1009.5 hPa16.1 kmSE (130°)29.6 km/h0.25 mmScattered Clouds
12:08 PM27 °C25 °C89 %1010.2 hPa16.1 kmSE (130°)31.5 km/hMostly Cloudy
12:43 PM25 °C24 °C94 %1010.2 hPa2.4 kmSSE (150°)25.9 km/h42.6 km/hMostly Cloudy
12:48 PM25 °C24 °C94 %1010.2 hPa4 kmSSE (150°)24.1 km/h37 km/hMostly Cloudy
12:53 PM25 °C24 °C94 %1010.2 hPa14.5 kmSE (140°)25.9 km/hMostly Cloudy
12:58 PM25.6 °C24.6 °C94 %1009.5 hPa16.1 kmSE (130°)25.9 km/h1.02 mmScattered Clouds
1:58 PM27 °C25 °C89 %1008.5 hPa16.1 kmSE (130°)25.9 km/hMostly Cloudy
2:28 PM27 °C25 °C89 %1009.5 hPa16.1 kmSE (130°)24.1 km/hMostly Cloudy
2:33 PM27 °C25 °C89 %1009.5 hPa16.1 kmESE (120°)25.9 km/hMostly Cloudy
2:38 PM27 °C25 °C89 %1009.5 hPa16.1 kmSE (130°)24.1 km/hScattered Clouds
2:43 PM27 °C25 °C89 %1009.5 hPa16.1 kmSE (130°)24.1 km/hMostly Cloudy
2:48 PM27 °C25 °C89 %1009.5 hPa16.1 kmSE (130°)24.1 km/hMostly Cloudy
2:58 PM27 °C25 °C89 %1008.5 hPa16.1 kmSE (130°)22.2 km/hMostly Cloudy
3:08 PM27 °C25 °C89 %1009.5 hPa16.1 kmSE (130°)29.6 km/h35.2 km/hMostly Cloudy
3:13 PM27 °C25 °C89 %1009.5 hPa16.1 kmSE (130°)25.9 km/hMostly Cloudy
3:18 PM27 °C25 °C89 %1009.5 hPa16.1 kmESE (120°)25.9 km/hMostly Cloudy
3:28 PM27 °C25 °C89 %1009.5 hPa16.1 kmESE (120°)22.2 km/hScattered Clouds
3:38 PM27 °C25 °C89 %1009.8 hPa16.1 kmSSE (150°)25.9 km/hMostly Cloudy
3:55 PM25 °C25 °C100 %1010.2 hPa4.8 kmSSE (150°)29.6 km/h37 km/hRainLight Rain
3:58 PM25 °C24 °C94 %1009.5 hPa2.4 kmSSE (150°)25.9 km/h37 km/h0.51 mmRainHeavy Rain
4:03 PM25 °C24 °C94 %1010.2 hPa1.9 kmSE (130°)22.2 km/hRainLight Rain
4:08 PM25 °C24 °C94 %1010.2 hPa4 kmSE (130°)20.4 km/hRainLight Rain
4:09 PM25 °C24 °C94 %1010.2 hPa6.4 kmSE (130°)22.2 km/hMostly Cloudy
4:14 PM25 °C24 °C94 %1010.2 hPa14.5 kmSE (130°)18.5 km/hMostly Cloudy
4:19 PM25 °C24 °C94 %1010.2 hPa16.1 kmSE (130°)14.8 km/hMostly Cloudy
4:58 PM26 °C25 °C94 %1009.5 hPa16.1 kmESE (120°)24.1 km/h1.78 mmScattered Clouds
5:58 PM26.1 °C24.9 °C93 %1010.2 hPa16.1 kmSE (130°)20.4 km/hPartly Cloudy
6:13 PM26 °C25 °C94 %1011.5 hPa16.1 kmSE (130°)18.5 km/hMostly Cloudy
6:23 PM26 °C25 °C94 %1011.5 hPa16.1 kmSSE (150°)31.5 km/h44.4 km/hMostly Cloudy
6:26 PM26 °C25 °C94 %1011.9 hPa16.1 kmSSE (160°)22.2 km/h44.4 km/hLight Drizzle
6:31 PM25 °C24 °C94 %1011.9 hPa16.1 kmSSE (160°)16.7 km/h44.4 km/hLight Drizzle
6:36 PM25 °C24 °C94 %1011.9 hPa16.1 kmSSE (160°)13 km/hMostly Cloudy
6:41 PM25 °C24 °C94 %1011.9 hPa16.1 kmSSE (160°)14.8 km/hScattered Clouds
6:58 PM24.9 °C24.6 °C98 %1011.2 hPa16.1 kmSSE (150°)9.3 km/h0 mmScattered Clouds
7:31 PM25 °C25 °C100 %1012.5 hPa16.1 kmSouth (180°)14.8 km/hRainLight Rain
7:56 PM25 °C25 °C100 %1012.5 hPa14.5 kmSouth (190°)11.1 km/hScattered Clouds
7:58 PM25 °C25 °C100 %1011.5 hPa16.1 kmSSW (200°)13 km/h0.76 mmScattered Clouds
8:58 PM25.3 °C24.7 °C96 %1012.2 hPa16.1 kmSSE (160°)11.1 km/hPartly Cloudy
9:58 PM25.2 °C24.4 °C95 %1012.2 hPa16.1 kmSouth (190°)16.7 km/hClear
10:58 PM25 °C24.2 °C95 %1011.9 hPa16.1 kmSouth (180°)11.1 km/hScattered Clouds
11:58 PM24.9 °C24.1 °C95 %1011.5 hPa16.1 kmSouth (190°)11.1 km/hMostly Cloudy
Hourly data recorded from PGUA, located 0 kilometers away from Umatac, Guam







STORIES FROM OUR PARTNERS